Lexington Weather

Lexington, Massachusetts, USA

74°F
8/7/2020 11:47am 
  • Lexington Conditions: Clear
  • Temperature: 73.8°F / 23.2°CWarmer 2.6°F than last hour.
  • Dew Point: 64.6°FIncreased 1.3°Fsince last hour.
  • Relative Humidity: 73%Decreased 3.0% since last hour.
  • Wind: Calm, 10-min avg: Calm, gust: 2 mph
  • Barometer: 30.13 inFalling 0.02  inHg/hr Falling Slowly
  • Visibility: 10 miles
  • Rain Today: 0.00 in
  •   

Regional Weather Roundup
for Boston / Norton, MA

        
000
ASUS41 KBOX 011004
RWRBOX

REGIONAL WEATHER ROUNDUP
NATIONAL WEATHER SERVICE BOSTON/NORTON MA
600 AM EDT SAT AUG 01 2020

NOTE:  "FAIR" INDICATES FEW OR NO CLOUDS BELOW 12,000 FEET WITH NO 
SIGNIFICANT WEATHER AND/OR OBSTRUCTIONS TO VISIBILITY.

MAZALL-011100-
EASTERN MASSACHUSETTS
  
CITY           SKY/WX    TMP DP  RH WIND       PRES   REMARKS
BOSTON         PTCLDY    70  62  76 N5        29.88R                  
BEVERLY        CLEAR     63  62  97 N3        29.87R                  
LAWRENCE       CLEAR     66  63  90 CALM      29.90R                  
BEDFORD        CLEAR     62  59  90 CALM      29.88R                  
BLUE HILL      NOT AVBL                                               
NORWOOD        PTCLDY    61  58  90 CALM      29.88R FOG              
MARSHFIELD     NOT AVBL                                               
PLYMOUTH       CLEAR     64  63  96 CALM      29.88R                  
TAUNTON        CLEAR     60  57  89 CALM      29.87R FOG              
NEW BEDFORD    FOG       61  61 100 CALM      29.87R VSB 1            
$$

MAZALL-011100-
CAPE COD AND THE ISLANDS
  
CITY           SKY/WX    TMP DP  RH WIND       PRES   REMARKS
FALMOUTH       CLEAR     64  64 100 CALM      29.87R                  
HYANNIS        CLEAR     66  65  96 CALM      29.86R FOG              
CHATHAM        CLEAR     68  66  93 CALM      29.88R                  
PROVINCETOWN   CLEAR     71  69  93 N3        29.88R                  
NANTUCKET      CLEAR     68  67  96 N5        29.87R                  
MARTHAS VNYRD  FOG       59  59 100 CALM      29.87R VSB<1/4          
$$
 
MAZALL-011100-
CENTRAL AND WESTERN MASSACHUSETTS
  
CITY           SKY/WX    TMP DP  RH WIND       PRES   REMARKS
WORCESTER      CLEAR     70  57  63 N6        29.92R                  
FITCHBURG      CLEAR     63  59  87 CALM      29.90R                  
ORANGE         CLEAR     60  59  96 CALM      29.93R                  
SPRINGFIELD    CLEAR     62  60  95 CALM      29.89R                  
WESTFIELD      CLEAR     64  61  90 N6        29.90R                  
NORTH ADAMS    CLEAR     56  54  93 CALM      29.94R                  
PITTSFIELD     MOCLDY    59  58  96 CALM      29.94R                  
$$
 
RIZALL-011100-
RHODE ISLAND
  
CITY           SKY/WX    TMP DP  RH WIND       PRES   REMARKS
PROVIDENCE     CLEAR     67  66  97 CALM      29.88R                  
NEWPORT        CLEAR     67  65  93 CALM      29.88R FOG              
BLOCK ISLAND   CLEAR     67  65  93 N3        29.89R                  
SMITHFIELD     CLEAR     66  66 100 CALM      29.90R                  
WESTERLY       CLEAR     64  61  90 CALM      29.89R                  
$$
 
CTZALL-011100-
CONNECTICUT
  
CITY           SKY/WX    TMP DP  RH WIND       PRES   REMARKS
BRADLEY INTL   PTCLDY    64  59  83 N3        29.89R                  
HARTFORD       CLEAR     68  61  78 N3        29.89R                  
BRIDGEPORT     CLEAR     70  66  87 CALM      29.88R                  
DANBURY        CLEAR     61  60  97 SW3       29.92R                  
GROTON         CLEAR     65  64  97 CALM      29.87R                  
NEW HAVEN      PTCLDY    70  67  90 N3        29.88R                  
CHESTER        NOT AVBL                                               
MERIDEN        CLEAR     66  63  90 CALM      29.89R                  
WILLIMANTIC    PTCLDY    65  63  93 N5        29.90R                  
OXFORD         CLEAR     65  61  87 NW3       29.92R                  
$$

MEZ002-015-021-024-NHZ003-005-008-011-012-014-VTZ005-008-011100-
NORTHERN NEW ENGLAND
  
CITY           SKY/WX    TMP DP  RH WIND       PRES   REMARKS
PORTLAND ME    CLEAR     68  60  75 N3        29.88R                  
BANGOR ME      CLEAR     61  58  90 CALM      29.88R                  
CONCORD NH     CLEAR     59  57  93 CALM      29.90R                  
MANCHESTER NH  CLEAR     68  62  81 N6        29.88R                  
NASHUA NH      CLEAR     63  62  97 NW3       29.90R                  
PORTSMOUTH NH  PTCLDY    64  60  88 CALM      29.86R                  
JAFFREY NH     CLEAR     58  55  90 CALM      29.94R                  
KEENE NH       CLEAR     57  55  94 CALM      29.93R FOG              
BURLINGTON VT  PTCLDY    62  58  86 E3        29.93R                  
MT. WASHINGTON PTCLDY    46  45  93 N18         N/A                   
$$

NYZ052-076-011100-
EASTERN NEW YORK
  
CITY           SKY/WX    TMP DP  RH WIND       PRES   REMARKS
ALBANY         PTCLDY    63  62  97 CALM      29.92R                  
NEW YORK CITY  PTCLDY    74  69  85 NE3       29.88R                  
$$
 
ANZALL-011100-
MARINE OBSERVATIONS
  
STATION/POSITION TIME  TEMP    WIND        PRES    VSBY  WAVE
                       AIR SEA DIR/SP/G                  HT/PER
                 (UTC) (F)     (DEG/KT/KT) (MB)    (MI)  (FT/S)
BOSTON BUOY      0950   71 73   10/  6/  6 1010.2R         1/ 9
BUZZARDS BAY     0900          250/  1/  2 1012.0R
NANTUCKET SOUND  0950      76  350/  6/ 10   N/A           1
MASS BAY-STELLWA NOT AVBL
ISLE OF SHOALS   0900   70     320/  7/  8 1010.5R
S OF BLOCK IS    0926      74                N/A           3/ 8
$$

......................KEY.........................
  SKY/WX - SKY CONDITION/PRESENT WEATHER
  TMP    - TEMPERATURE IN FAHRENHEIT
  DWPT   - DEWPOINT IN FAHRENHEIT
  RH     - RELATIVE HUMIDITY IN PERCENT
  WIND   - DIRECTION AND SPEED IN MPH
  PRES   - MEAN SEA LEVEL PRESSURE IN INCHES OF HG
  WCI    - WIND CHILL INDEX
  VSB    - VISIBILITY IN MILES
  HX     - HEAT INDEX
  TC     - TEMPERATURE IN CELSIUS
  VRB    - VARIABLE WIND DIRECTION
  N/A    - NOT AVAILABLE
  
      

Other recent Regional Weather Roundups

Fri Aug 7, 11:04am

Fri Aug 7, 10:04am

Fri Aug 7, 9:04am

Fri Aug 7, 8:04am

Fri Aug 7, 7:04am

Fri Aug 7, 6:04am

Fri Aug 7, 5:04am

Fri Aug 7, 4:04am

Fri Aug 7, 3:04am

Fri Aug 7, 2:04am

Fri Aug 7, 1:05am

Fri Aug 7, 12:04am

Thu Aug 6, 11:04pm

Thu Aug 6, 10:04pm

Thu Aug 6, 9:04pm

Thu Aug 6, 8:04pm

Thu Aug 6, 7:04pm

Thu Aug 6, 6:04pm

Thu Aug 6, 5:04pm

Thu Aug 6, 4:05pm

Thu Aug 6, 3:04pm

Thu Aug 6, 2:05pm

Thu Aug 6, 1:04pm

Thu Aug 6, 12:04pm

Thu Aug 6, 11:04am

Thu Aug 6, 10:04am

Thu Aug 6, 9:04am

Thu Aug 6, 8:04am

Thu Aug 6, 7:04am

Thu Aug 6, 6:04am

Thu Aug 6, 5:04am

Thu Aug 6, 4:04am

Thu Aug 6, 3:04am

Thu Aug 6, 2:05am

Thu Aug 6, 1:04am

Thu Aug 6, 12:04am

Wed Aug 5, 11:04pm

Wed Aug 5, 10:04pm

Wed Aug 5, 9:04pm

Wed Aug 5, 8:05pm

Wed Aug 5, 7:04pm

Wed Aug 5, 6:04pm

Wed Aug 5, 5:04pm

Wed Aug 5, 4:05pm

Wed Aug 5, 3:04pm

Wed Aug 5, 2:04pm

Wed Aug 5, 1:04pm

Wed Aug 5, 12:04pm

Wed Aug 5, 11:04am

Wed Aug 5, 10:04am

Wed Aug 5, 9:04am

Wed Aug 5, 8:04am

Wed Aug 5, 7:04am

Wed Aug 5, 6:04am

Wed Aug 5, 5:04am

Wed Aug 5, 4:04am

Wed Aug 5, 3:04am

Wed Aug 5, 2:05am

Wed Aug 5, 1:04am

Wed Aug 5, 12:05am

Tue Aug 4, 11:05pm

Tue Aug 4, 10:05pm

Tue Aug 4, 9:04pm

Tue Aug 4, 8:04pm

Tue Aug 4, 7:05pm

Tue Aug 4, 6:05pm

Tue Aug 4, 5:05pm

Tue Aug 4, 4:05pm

Tue Aug 4, 3:04pm

Tue Aug 4, 2:05pm

Tue Aug 4, 1:04pm

Tue Aug 4, 12:05pm

Tue Aug 4, 11:04am

Tue Aug 4, 10:04am

Tue Aug 4, 9:04am

Tue Aug 4, 8:04am

Tue Aug 4, 7:04am

Tue Aug 4, 6:04am

Tue Aug 4, 5:04am

Tue Aug 4, 4:04am

Tue Aug 4, 3:04am

Tue Aug 4, 2:04am

Tue Aug 4, 1:04am

Tue Aug 4, 12:04am

Mon Aug 3, 11:04pm

Mon Aug 3, 10:04pm

Mon Aug 3, 9:04pm

Mon Aug 3, 8:05pm

Mon Aug 3, 7:04pm

Mon Aug 3, 6:04pm

Mon Aug 3, 5:04pm

Mon Aug 3, 4:05pm

Mon Aug 3, 3:04pm

Mon Aug 3, 2:04pm

Mon Aug 3, 1:04pm

Mon Aug 3, 12:05pm

Mon Aug 3, 11:04am

Mon Aug 3, 10:04am

Mon Aug 3, 9:05am

Mon Aug 3, 8:04am

Mon Aug 3, 7:04am

Mon Aug 3, 6:04am

Mon Aug 3, 5:04am

Mon Aug 3, 4:04am

Mon Aug 3, 3:04am

Mon Aug 3, 2:04am

Mon Aug 3, 1:04am

Mon Aug 3, 12:05am

Sun Aug 2, 11:04pm

Sun Aug 2, 10:04pm

Sun Aug 2, 9:04pm

Sun Aug 2, 8:04pm

Sun Aug 2, 7:04pm

Sun Aug 2, 6:04pm

Sun Aug 2, 5:04pm

Sun Aug 2, 4:05pm

Sun Aug 2, 3:04pm

Sun Aug 2, 2:05pm

Sun Aug 2, 1:04pm

Sun Aug 2, 12:04pm

Sun Aug 2, 11:04am

Sun Aug 2, 10:04am

Sun Aug 2, 9:05am

Sun Aug 2, 8:05am

Sun Aug 2, 7:04am

Sun Aug 2, 6:04am

Sun Aug 2, 5:04am

Sun Aug 2, 4:05am

Sun Aug 2, 3:04am

Sun Aug 2, 2:04am

Sun Aug 2, 1:04am

Sun Aug 2, 12:05am

Sat Aug 1, 11:04pm

Sat Aug 1, 10:04pm

Sat Aug 1, 9:04pm

Sat Aug 1, 8:05pm

Sat Aug 1, 7:04pm

Sat Aug 1, 6:04pm

Sat Aug 1, 5:05pm

Sat Aug 1, 4:05pm

Sat Aug 1, 3:04pm

Sat Aug 1, 2:04pm

Sat Aug 1, 1:04pm

Sat Aug 1, 12:04pm

Sat Aug 1, 11:05am

Sat Aug 1, 10:05am

Sat Aug 1, 9:04am

Sat Aug 1, 8:04am

Sat Aug 1, 7:04am

Sat Aug 1, 5:04am

Sat Aug 1, 4:05am

Sat Aug 1, 3:04am

Sat Aug 1, 2:04am

Sat Aug 1, 1:04am

Sat Aug 1, 12:05am

Fri Jul 31, 11:05pm

Fri Jul 31, 10:04pm

Fri Jul 31, 9:04pm

Fri Jul 31, 8:05pm

Fri Jul 31, 7:05pm

Fri Jul 31, 6:04pm

Fri Jul 31, 5:04pm

Fri Jul 31, 4:05pm

Fri Jul 31, 3:04pm

Fri Jul 31, 2:05pm

Fri Jul 31, 1:04pm

Fri Jul 31, 12:04pm

Meta data:

ID: 3029a3b1-ca98-4c5c-a222-6efa2c99cde3
Link: https://api.weather.gov/products/3029a3b1-ca98-4c5c-a222-6efa2c99cde3